When you browse on this site, cookies collect data to enhance your experience and personalize the content and advertising you see.
Visit our Privacy Policy to learn more. By continuing to use the site, you agree to this use of cookies and data.
  • In Austria
  • List of Countries
  • For 7 days
  • Water Temperature
  • Weather Map
  • News
  • Weather Widgets
  • user-avatar
    Login

    Hourly Weather Lutoven

    Today, 6 June, Saturday

    Time Temperature Precipitation Wind Pressure Humidity
    00:00 +16°C° 0 mm 3 mps 741 mmHg 94%
    01:00 +16°C° 0 mm 3 mps 741 mmHg 95%
    02:00 +14°C° 0 mm 3 mps 741 mmHg 95%
    03:00 +14°C° 0.3 mm 3 mps 742 mmHg 95%
    04:00 +16°C° 0.3 mm 2 mps 742 mmHg 96%
    05:00 +16°C° 0.3 mm 2 mps 742 mmHg 97%
    06:00 +16°C° 0.2 mm 3 mps 742 mmHg 96%
    07:00 +16°C° 0.2 mm 3 mps 743 mmHg 96%
    08:00 +17°C° 0.2 mm 3 mps 743 mmHg 95%
    09:00 +18°C° 0.1 mm 3 mps 744 mmHg 92%
    10:00 +19°C° 0.1 mm 4 mps 744 mmHg 89%
    11:00 +19°C° 0.1 mm 4 mps 744 mmHg 85%
    12:00 +21°C° 0 mm 4 mps 745 mmHg 78%
    13:00 +22°C° 0 mm 4 mps 745 mmHg 71%
    14:00 +25°C° 0 mm 4 mps 746 mmHg 64%
    15:00 +23°C° 0 mm 4 mps 746 mmHg 65%
    16:00 +23°C° 0 mm 4 mps 746 mmHg 66%
    17:00 +23°C° 0 mm 4 mps 746 mmHg 68%
    18:00 +21°C° 0 mm 3 mps 746 mmHg 73%
    19:00 +20°C° 0 mm 2 mps 746 mmHg 79%
    20:00 +19°C° 0 mm 1 mps 747 mmHg 84%
    21:00 +18°C° 0 mm 1 mps 747 mmHg 85%
    22:00 +16°C° 0 mm 1 mps 748 mmHg 86%
    23:00 +15°C° 0 mm 1 mps 748 mmHg 87%

    Tomorrow, 7 June, Sunday

    Time Temperature Precipitation Wind Pressure Humidity
    00:00 +15°C° 0 mm 1 mps 748 mmHg 88%
    01:00 +15°C° 0 mm 1 mps 748 mmHg 89%
    02:00 +15°C° 0 mm 2 mps 748 mmHg 89%
    03:00 +15°C° 0 mm 2 mps 748 mmHg 90%
    04:00 +15°C° 0 mm 2 mps 748 mmHg 90%
    05:00 +14°C° 0 mm 3 mps 749 mmHg 90%
    06:00 +16°C° 0.1 mm 3 mps 749 mmHg 89%
    07:00 +17°C° 0.1 mm 3 mps 749 mmHg 87%
    08:00 +18°C° 0.1 mm 3 mps 749 mmHg 85%
    09:00 +20°C° 0 mm 4 mps 749 mmHg 81%
    10:00 +22°C° 0 mm 4 mps 749 mmHg 77%
    11:00 +25°C° 0 mm 5 mps 749 mmHg 72%
    12:00 +26°C° 0 mm 5 mps 749 mmHg 70%
    13:00 +27°C° 0 mm 5 mps 748 mmHg 67%
    14:00 +28°C° 0 mm 4 mps 748 mmHg 64%
    15:00 +27°C° 0.8 mm 4 mps 748 mmHg 70%
    16:00 +27°C° 0.8 mm 3 mps 748 mmHg 75%
    17:00 +26°C° 0.8 mm 3 mps 747 mmHg 80%
    18:00 +25°C° 0.1 mm 3 mps 747 mmHg 82%
    19:00 +22°C° 0.1 mm 3 mps 747 mmHg 84%
    20:00 +21°C° 0.1 mm 3 mps 747 mmHg 86%
    21:00 +20°C° 0 mm 3 mps 747 mmHg 88%
    22:00 +19°C° 0 mm 3 mps 748 mmHg 91%
    23:00 +18°C° 0 mm 3 mps 748 mmHg 93%

    Day after tomorrow, 8 June, Monday

    Time Temperature Precipitation Wind Pressure Humidity
    00:00 +18°C° 0 mm 3 mps 748 mmHg 94%
    01:00 +17°C° 0 mm 3 mps 748 mmHg 94%
    02:00 +17°C° 0 mm 3 mps 748 mmHg 95%
    03:00 +17°C° 0 mm 3 mps 748 mmHg 95%
    04:00 +17°C° 0 mm 3 mps 748 mmHg 95%
    05:00 +17°C° 0 mm 3 mps 748 mmHg 95%
    06:00 +19°C° 0 mm 3 mps 748 mmHg 89%
    07:00 +20°C° 0 mm 3 mps 748 mmHg 84%
    08:00 +22°C° 0 mm 4 mps 748 mmHg 79%
    09:00 +25°C° 0 mm 4 mps 748 mmHg 72%
    10:00 +27°C° 0 mm 4 mps 749 mmHg 65%
    11:00 +28°C° 0 mm 4 mps 749 mmHg 59%
    12:00 +29°C° 0 mm 4 mps 749 mmHg 56%
    13:00 +29°C° 0 mm 4 mps 748 mmHg 54%
    14:00 +30°C° 0 mm 4 mps 748 mmHg 52%
    15:00 +29°C° 0 mm 4 mps 748 mmHg 56%
    16:00 +29°C° 0 mm 3 mps 748 mmHg 60%
    17:00 +29°C° 0 mm 3 mps 747 mmHg 64%
    18:00 +27°C° 0 mm 3 mps 747 mmHg 69%
    19:00 +25°C° 0 mm 3 mps 747 mmHg 74%
    20:00 +23°C° 0 mm 2 mps 747 mmHg 78%
    21:00 +21°C° 0 mm 2 mps 748 mmHg 81%
    22:00 +20°C° 0 mm 2 mps 748 mmHg 84%
    23:00 +19°C° 0 mm 3 mps 748 mmHg 87%

    9 June, Tuesday

    Time Temperature Precipitation Wind Pressure Humidity
    00:00 +18°C° 0 mm 2 mps 748 mmHg 89%
    01:00 +18°C° 0 mm 2 mps 748 mmHg 90%
    02:00 +17°C° 0 mm 2 mps 748 mmHg 92%
    03:00 +18°C° 0 mm 3 mps 748 mmHg 93%
    04:00 +18°C° 0 mm 3 mps 748 mmHg 93%
    05:00 +18°C° 0 mm 3 mps 748 mmHg 94%
    06:00 +20°C° 0 mm 3 mps 748 mmHg 89%
    07:00 +21°C° 0 mm 4 mps 748 mmHg 83%
    08:00 +23°C° 0 mm 4 mps 748 mmHg 78%
    09:00 +25°C° 0 mm 4 mps 749 mmHg 72%
    10:00 +27°C° 0 mm 5 mps 749 mmHg 66%
    11:00 +28°C° 0 mm 5 mps 749 mmHg 60%
    12:00 +29°C° 0 mm 5 mps 749 mmHg 58%
    13:00 +30°C° 0 mm 4 mps 748 mmHg 56%
    14:00 +30°C° 0 mm 4 mps 748 mmHg 53%
    15:00 +30°C° 0 mm 4 mps 748 mmHg 57%
    16:00 +30°C° 0 mm 3 mps 748 mmHg 60%
    17:00 +29°C° 0 mm 3 mps 748 mmHg 64%
    18:00 +28°C° 0.1 mm 3 mps 748 mmHg 69%
    19:00 +26°C° 0.1 mm 2 mps 748 mmHg 74%
    20:00 +24°C° 0.1 mm 2 mps 748 mmHg 79%
    21:00 +23°C° 0 mm 2 mps 748 mmHg 82%
    22:00 +21°C° 0 mm 2 mps 748 mmHg 85%
    23:00 +20°C° 0 mm 2 mps 748 mmHg 88%

    10 June, Wednesday

    Time Temperature Precipitation Wind Pressure Humidity
    00:00 +20°C° 0 mm 2 mps 748 mmHg 90%
    01:00 +19°C° 0 mm 2 mps 748 mmHg 92%
    02:00 +19°C° 0 mm 2 mps 748 mmHg 93%
    03:00 +19°C° 0 mm 3 mps 748 mmHg 93%
    04:00 +19°C° 0 mm 3 mps 748 mmHg 93%
    05:00 +19°C° 0 mm 3 mps 748 mmHg 94%
    06:00 +21°C° 0 mm 3 mps 748 mmHg 89%
    07:00 +22°C° 0 mm 3 mps 748 mmHg 84%
    08:00 +25°C° 0 mm 4 mps 748 mmHg 79%
    09:00 +26°C° 0.8 mm 4 mps 748 mmHg 74%
    10:00 +27°C° 0.8 mm 4 mps 748 mmHg 70%
    11:00 +28°C° 0.8 mm 4 mps 748 mmHg 65%
    12:00 +29°C° 1 mm 4 mps 747 mmHg 64%
    13:00 +29°C° 1 mm 4 mps 747 mmHg 63%
    14:00 +30°C° 1 mm 3 mps 747 mmHg 61%
    15:00 +29°C° 0.6 mm 3 mps 747 mmHg 64%
    16:00 +29°C° 0.6 mm 3 mps 746 mmHg 67%
    17:00 +29°C° 0.6 mm 3 mps 746 mmHg 70%
    18:00 +27°C° 0.5 mm 3 mps 746 mmHg 74%
    19:00 +26°C° 0.5 mm 3 mps 746 mmHg 78%
    20:00 +24°C° 0.5 mm 3 mps 746 mmHg 82%
    21:00 +23°C° 0.4 mm 2 mps 746 mmHg 85%
    22:00 +21°C° 0.4 mm 2 mps 746 mmHg 87%
    23:00 +20°C° 0.4 mm 2 mps 746 mmHg 89%

    11 June, Thursday

    Time Temperature Precipitation Wind Pressure Humidity
    00:00 +20°C° 0 mm 2 mps 746 mmHg 91%
    01:00 +19°C° 0 mm 2 mps 746 mmHg 92%
    02:00 +19°C° 0 mm 2 mps 745 mmHg 93%
    03:00 +19°C° 0.1 mm 2 mps 745 mmHg 94%
    04:00 +19°C° 0.1 mm 2 mps 745 mmHg 95%
    05:00 +19°C° 0.1 mm 2 mps 745 mmHg 95%
    06:00 +20°C° 0.4 mm 2 mps 745 mmHg 93%
    07:00 +21°C° 0.4 mm 2 mps 745 mmHg 91%
    08:00 +23°C° 0.4 mm 2 mps 745 mmHg 88%
    09:00 +25°C° 0.9 mm 2 mps 745 mmHg 81%
    10:00 +27°C° 0.9 mm 2 mps 745 mmHg 74%
    11:00 +28°C° 0.9 mm 2 mps 744 mmHg 67%
    12:00 +29°C° 0.6 mm 2 mps 744 mmHg 64%
    13:00 +29°C° 0.6 mm 2 mps 744 mmHg 61%
    14:00 +30°C° 0.6 mm 2 mps 743 mmHg 58%
    15:00 +30°C° 0.4 mm 2 mps 743 mmHg 60%
    16:00 +30°C° 0.4 mm 2 mps 743 mmHg 62%
    17:00 +30°C° 0.4 mm 2 mps 743 mmHg 63%
    18:00 +28°C° 0.2 mm 2 mps 743 mmHg 69%
    19:00 +26°C° 0.2 mm 2 mps 743 mmHg 74%
    20:00 +24°C° 0.2 mm 2 mps 743 mmHg 80%
    21:00 +23°C° 0.2 mm 2 mps 743 mmHg 83%
    22:00 +22°C° 0.2 mm 1 mps 743 mmHg 85%
    23:00 +21°C° 0.2 mm 1 mps 743 mmHg 88%
    Show more